LOT6VT LJLJ-EPWA

Flight info

Callsign LOT6VT
Flight time 1h 21m
Altitude 39000
Route LUPIX2E LUPIX DCT DIMLO DCT MEBAN DCT ORTEB/N0455F380 DCT KONZI DCT LOGDA
Aircraft B38M/M-SDE1FGHILORVWXY/HB1

Departure

Time 2026-04-30 19:25
Airport Ljubljana Jože Pučnik Airport (LJLJ)

Arrival

Time 2026-04-30 20:47
Airport Warsaw Chopin Airport (EPWA)
Time Latitude Longitude Altitude Speed Heading
2026-04-30 18:39 46.23051 14.45372 1261 ft 0 kts 37°
2026-04-30 19:10 46.23051 14.45371 1261 ft 0 kts 37°
2026-04-30 19:17 46.23017 14.45321 1264 ft 4 kts 67°
2026-04-30 19:17 46.23015 14.45288 1262 ft 4 kts 117°
2026-04-30 19:18 46.23017 14.45282 1261 ft 0 kts 125°
2026-04-30 19:21 46.22966 14.45384 1266 ft 9 kts 126°
2026-04-30 19:22 46.22882 14.45356 1262 ft 9 kts 217°
2026-04-30 19:22 46.22971 14.45045 1269 ft 22 kts 307°
2026-04-30 19:23 46.23242 14.44515 1275 ft 21 kts 307°
2026-04-30 19:24 46.23392 14.44218 1288 ft 15 kts 296°
2026-04-30 19:24 46.23365 14.44095 1288 ft 14 kts 211°
2026-04-30 19:24 46.23144 14.44244 1282 ft 39 kts 126°
2026-04-30 19:25 46.21560 14.47306 2020 ft 163 kts 126°
2026-04-30 19:26 46.20180 14.49966 3253 ft 168 kts 124°
2026-04-30 19:26 46.18794 14.52721 4378 ft 174 kts 123°
2026-04-30 19:26 46.18037 14.54201 4681 ft 196 kts 123°
2026-04-30 19:27 46.16226 14.57733 5302 ft 241 kts 123°
2026-04-30 19:27 46.14101 14.61869 6320 ft 265 kts 122°
2026-04-30 19:28 46.12993 14.64023 6988 ft 271 kts 122°
2026-04-30 19:28 46.10724 14.68427 8349 ft 277 kts 122°
2026-04-30 19:29 46.08413 14.72943 9720 ft 282 kts 118°
2026-04-30 19:29 46.07765 14.75542 10394 ft 275 kts 91°
2026-04-30 19:30 46.09805 14.83631 11352 ft 312 kts 60°
2026-04-30 19:30 46.11871 14.89194 12657 ft 318 kts 60°
2026-04-30 19:31 46.14008 14.94859 14131 ft 325 kts 59°
2026-04-30 19:31 46.15094 14.97733 14803 ft 328 kts 59°
2026-04-30 19:31 46.17302 15.03574 16168 ft 334 kts 59°
2026-04-30 19:32 46.18404 15.06493 16791 ft 338 kts 59°
2026-04-30 19:32 46.19532 15.09488 17435 ft 341 kts 59°
2026-04-30 19:32 46.20671 15.12514 18107 ft 345 kts 59°
2026-04-30 19:32 46.21820 15.15565 18732 ft 348 kts 59°
2026-04-30 19:33 46.22980 15.18655 19252 ft 352 kts 59°
2026-04-30 19:33 46.24149 15.21768 19812 ft 354 kts 59°
2026-04-30 19:33 46.25324 15.24903 20339 ft 356 kts 59°
2026-04-30 19:33 46.26507 15.28065 20870 ft 359 kts 59°
2026-04-30 19:34 46.27698 15.31250 21384 ft 361 kts 59°
2026-04-30 19:34 46.28897 15.34457 21921 ft 364 kts 59°
2026-04-30 19:34 46.31317 15.40949 22995 ft 369 kts 59°
2026-04-30 19:35 46.32538 15.44230 23550 ft 372 kts 59°
2026-04-30 19:35 46.33767 15.47536 24039 ft 375 kts 59°
2026-04-30 19:35 46.35005 15.50870 24507 ft 377 kts 59°
2026-04-30 19:35 46.36251 15.54229 24983 ft 380 kts 59°
2026-04-30 19:36 46.37503 15.57611 25453 ft 382 kts 59°
2026-04-30 19:36 46.38761 15.61012 25913 ft 385 kts 59°
2026-04-30 19:36 46.41304 15.67899 26818 ft 390 kts 59°
2026-04-30 19:37 46.42585 15.71377 27261 ft 393 kts 59°
2026-04-30 19:37 46.43876 15.74885 27682 ft 395 kts 59°
2026-04-30 19:37 46.45172 15.78412 28101 ft 398 kts 59°
2026-04-30 19:37 46.46477 15.81968 28519 ft 401 kts 59°
2026-04-30 19:38 46.47790 15.85549 28924 ft 403 kts 59°
2026-04-30 19:38 46.49111 15.89157 29322 ft 406 kts 59°
2026-04-30 19:38 46.50437 15.92784 29708 ft 409 kts 59°
2026-04-30 19:38 46.51770 15.96438 30088 ft 411 kts 59°
2026-04-30 19:39 46.53111 16.00117 30456 ft 414 kts 59°
2026-04-30 19:39 46.54461 16.03823 30766 ft 416 kts 59°
2026-04-30 19:39 46.55799 16.07505 31064 ft 418 kts 59°
2026-04-30 19:39 46.57176 16.11296 31376 ft 420 kts 59°
2026-04-30 19:40 46.58544 16.15070 31674 ft 423 kts 59°
2026-04-30 19:40 46.59898 16.18811 31969 ft 425 kts 59°
2026-04-30 19:40 46.61275 16.22619 32263 ft 427 kts 59°
2026-04-30 19:40 46.62660 16.26456 32551 ft 429 kts 59°
2026-04-30 19:41 46.64052 16.30311 32872 ft 430 kts 59°
2026-04-30 19:41 46.65439 16.34162 33281 ft 430 kts 59°
2026-04-30 19:41 46.66825 16.38015 33670 ft 429 kts 59°
2026-04-30 19:41 46.68430 16.41649 34033 ft 425 kts 46°
2026-04-30 19:42 46.70615 16.44490 34440 ft 421 kts 37°
2026-04-30 19:42 46.72924 16.47114 34688 ft 422 kts 37°
2026-04-30 19:42 46.75257 16.49725 34941 ft 423 kts 36°
2026-04-30 19:42 46.77605 16.52320 35204 ft 424 kts 36°
2026-04-30 19:43 46.79966 16.54909 35477 ft 425 kts 36°
2026-04-30 19:43 46.82330 16.57494 35744 ft 425 kts 36°
2026-04-30 19:43 46.84700 16.60086 36006 ft 426 kts 36°
2026-04-30 19:44 46.89454 16.65292 36514 ft 428 kts 36°
2026-04-30 19:44 46.91837 16.67906 36773 ft 428 kts 36°
2026-04-30 19:44 46.94221 16.70524 36996 ft 429 kts 36°
2026-04-30 19:44 46.96608 16.73149 37238 ft 430 kts 36°
2026-04-30 19:45 46.98999 16.75780 37466 ft 430 kts 36°
2026-04-30 19:45 47.01392 16.78416 37692 ft 431 kts 36°
2026-04-30 19:45 47.03787 16.81059 37916 ft 432 kts 36°
2026-04-30 19:45 47.06190 16.83713 38125 ft 432 kts 36°
2026-04-30 19:46 47.08594 16.86371 38335 ft 433 kts 36°
2026-04-30 19:46 47.10999 16.89034 38535 ft 434 kts 36°
2026-04-30 19:46 47.13408 16.91702 38738 ft 434 kts 36°
2026-04-30 19:46 47.15817 16.94375 38919 ft 435 kts 36°
2026-04-30 19:47 47.18233 16.97059 39094 ft 435 kts 36°
2026-04-30 19:47 47.23066 17.02438 39351 ft 436 kts 36°
2026-04-30 19:48 47.27886 17.07814 39360 ft 433 kts 36°
2026-04-30 19:48 47.32690 17.13184 39362 ft 433 kts 36°
2026-04-30 19:49 47.37481 17.18554 39368 ft 432 kts 36°
2026-04-30 19:49 47.44649 17.26610 39368 ft 431 kts 36°
2026-04-30 19:50 47.49411 17.31978 39365 ft 430 kts 36°
2026-04-30 19:50 47.54162 17.37345 39366 ft 429 kts 36°
2026-04-30 19:51 47.58903 17.42715 39364 ft 429 kts 36°
2026-04-30 19:51 47.63642 17.48094 39364 ft 429 kts 36°
2026-04-30 19:52 47.68375 17.53479 39366 ft 428 kts 36°
2026-04-30 19:52 47.73099 17.58868 39367 ft 428 kts 36°
2026-04-30 19:53 47.77823 17.64267 39367 ft 428 kts 37°
2026-04-30 19:53 47.82538 17.69670 39367 ft 428 kts 37°
2026-04-30 19:54 47.87248 17.75080 39363 ft 427 kts 37°
2026-04-30 19:54 47.91955 17.80500 39362 ft 427 kts 37°
2026-04-30 19:55 47.96650 17.85917 39354 ft 427 kts 37°
2026-04-30 19:55 48.01341 17.91343 39351 ft 426 kts 37°
2026-04-30 19:56 48.06026 17.96776 39352 ft 426 kts 37°
2026-04-30 19:56 48.10704 18.02213 39350 ft 426 kts 37°
2026-04-30 19:57 48.15376 18.07655 39355 ft 425 kts 37°
2026-04-30 19:57 48.20038 18.13098 39353 ft 425 kts 37°
2026-04-30 19:58 48.23907 18.17627 39359 ft 424 kts 37°
2026-04-30 19:58 48.28560 18.23084 39354 ft 424 kts 37°
2026-04-30 19:59 48.33201 18.28539 39360 ft 424 kts 37°
2026-04-30 20:00 48.40153 18.36736 39362 ft 423 kts 37°
2026-04-30 20:00 48.44775 18.42202 39367 ft 422 kts 37°
2026-04-30 20:01 48.51685 18.50399 39365 ft 421 kts 37°
2026-04-30 20:01 48.56278 18.55862 39366 ft 420 kts 37°
2026-04-30 20:02 48.63148 18.64061 39371 ft 419 kts 37°
2026-04-30 20:03 48.70004 18.72270 39374 ft 419 kts 37°
2026-04-30 20:03 48.74568 18.77752 39372 ft 419 kts 37°
2026-04-30 20:04 48.79124 18.83236 39372 ft 418 kts 37°
2026-04-30 20:05 48.85952 18.91482 39379 ft 419 kts 38°
2026-04-30 20:05 48.92789 18.99768 39382 ft 420 kts 38°
2026-04-30 20:06 48.97349 19.05310 39375 ft 419 kts 38°
2026-04-30 20:06 49.01901 19.10855 39380 ft 419 kts 38°
2026-04-30 20:07 49.06450 19.16412 39386 ft 419 kts 38°
2026-04-30 20:08 49.13264 19.24760 39382 ft 419 kts 38°
2026-04-30 20:08 49.17800 19.30333 39388 ft 418 kts 38°
2026-04-30 20:09 49.22325 19.35905 39386 ft 417 kts 38°
2026-04-30 20:09 49.29100 19.44270 39383 ft 417 kts 38°
2026-04-30 20:10 49.35851 19.52635 39392 ft 416 kts 38°
2026-04-30 20:11 49.42699 19.60793 39372 ft 414 kts 27°
2026-04-30 20:11 49.45388 19.62282 39393 ft 412 kts 14°
2026-04-30 20:11 49.48148 19.63526 39378 ft 414 kts 20°
2026-04-30 20:12 49.56292 19.68012 39382 ft 414 kts 21°
2026-04-30 20:13 49.61707 19.71077 39383 ft 414 kts 21°
2026-04-30 20:13 49.67110 19.74148 39386 ft 414 kts 21°
2026-04-30 20:14 49.72515 19.77229 39377 ft 413 kts 21°
2026-04-30 20:14 49.77908 19.80309 39384 ft 413 kts 21°
2026-04-30 20:15 49.83298 19.83396 39386 ft 413 kts 21°
2026-04-30 20:15 49.88681 19.86486 39394 ft 412 kts 21°
2026-04-30 20:16 49.94062 19.89582 39392 ft 412 kts 21°
2026-04-30 20:16 49.99437 19.92682 39399 ft 412 kts 21°
2026-04-30 20:17 50.04803 19.95784 39400 ft 412 kts 21°
2026-04-30 20:17 50.10173 19.98896 39397 ft 411 kts 21°
2026-04-30 20:18 50.15532 20.02009 39391 ft 411 kts 21°
2026-04-30 20:18 50.18194 20.03557 39252 ft 405 kts 21°
2026-04-30 20:18 50.20834 20.05097 38532 ft 405 kts 21°
2026-04-30 20:18 50.23467 20.06634 37897 ft 403 kts 22°
2026-04-30 20:19 50.26086 20.08163 37284 ft 401 kts 22°
2026-04-30 20:19 50.27810 20.09172 36885 ft 399 kts 22°
2026-04-30 20:19 50.31271 20.11198 36099 ft 395 kts 22°
2026-04-30 20:19 50.33836 20.12702 35524 ft 392 kts 22°
2026-04-30 20:20 50.36385 20.14198 34958 ft 389 kts 23°
2026-04-30 20:20 50.38912 20.15683 34409 ft 386 kts 23°
2026-04-30 20:20 50.41425 20.17163 33609 ft 386 kts 24°
2026-04-30 20:20 50.43929 20.18637 32990 ft 382 kts 24°
2026-04-30 20:21 50.46399 20.20092 32475 ft 375 kts 24°
2026-04-30 20:21 50.48820 20.21521 32000 ft 369 kts 25°
2026-04-30 20:21 50.51196 20.22924 31573 ft 361 kts 25°
2026-04-30 20:21 50.53528 20.24302 31131 ft 355 kts 25°
2026-04-30 20:22 50.55812 20.25672 30708 ft 348 kts 26°
2026-04-30 20:22 50.58058 20.27032 30236 ft 342 kts 26°
2026-04-30 20:22 50.60266 20.28367 29646 ft 339 kts 26°
2026-04-30 20:22 50.62430 20.29677 29021 ft 337 kts 26°
2026-04-30 20:23 50.64640 20.31016 28398 ft 335 kts 26°
2026-04-30 20:23 50.66804 20.32328 27802 ft 333 kts 25°
2026-04-30 20:23 50.68963 20.33639 27211 ft 332 kts 25°
2026-04-30 20:23 50.71112 20.34944 26638 ft 330 kts 25°
2026-04-30 20:24 50.73252 20.36246 26078 ft 329 kts 25°
2026-04-30 20:24 50.75382 20.37543 25547 ft 328 kts 25°
2026-04-30 20:24 50.77473 20.38817 25121 ft 324 kts 24°
2026-04-30 20:24 50.79562 20.40091 24785 ft 319 kts 24°
2026-04-30 20:25 50.83604 20.42561 24228 ft 306 kts 24°
2026-04-30 20:25 50.85587 20.43774 23751 ft 306 kts 24°
2026-04-30 20:26 50.89540 20.46195 22784 ft 303 kts 24°
2026-04-30 20:26 50.93487 20.48617 21855 ft 301 kts 24°
2026-04-30 20:26 50.95409 20.49798 21403 ft 300 kts 23°
2026-04-30 20:27 50.99292 20.52188 20538 ft 298 kts 23°
2026-04-30 20:27 51.03153 20.54567 19695 ft 297 kts 23°
2026-04-30 20:28 51.06985 20.56933 18975 ft 292 kts 22°
2026-04-30 20:28 51.10734 20.59253 18211 ft 288 kts 22°
2026-04-30 20:29 51.14457 20.61560 17353 ft 286 kts 22°
2026-04-30 20:30 51.19978 20.64988 16332 ft 277 kts 22°
2026-04-30 20:30 51.25261 20.68277 15325 ft 270 kts 22°
2026-04-30 20:31 51.30503 20.71549 14253 ft 269 kts 21°
2026-04-30 20:32 51.35711 20.74807 13115 ft 266 kts 21°
2026-04-30 20:32 51.39154 20.76966 12357 ft 265 kts 21°
2026-04-30 20:33 51.40870 20.78043 12005 ft 264 kts 21°
2026-04-30 20:33 51.44283 20.80188 11299 ft 263 kts 21°
2026-04-30 20:33 51.45981 20.81257 10963 ft 262 kts 21°
2026-04-30 20:34 51.49370 20.83391 10336 ft 259 kts 21°
2026-04-30 20:34 51.52628 20.85447 9852 ft 249 kts 21°
2026-04-30 20:35 51.54236 20.86462 9527 ft 248 kts 21°
2026-04-30 20:35 51.55839 20.87476 9199 ft 247 kts 21°
2026-04-30 20:35 51.59018 20.89488 8564 ft 244 kts 21°
2026-04-30 20:36 51.60595 20.90487 8235 ft 244 kts 21°
2026-04-30 20:36 51.62178 20.91491 7985 ft 247 kts 21°
2026-04-30 20:36 51.65425 20.93551 7518 ft 252 kts 21°
2026-04-30 20:37 51.67055 20.94587 7283 ft 252 kts 21°
2026-04-30 20:37 51.68685 20.95624 7056 ft 252 kts 21°
2026-04-30 20:37 51.70313 20.96660 6829 ft 251 kts 21°
2026-04-30 20:37 51.71938 20.97696 6590 ft 251 kts 20°
2026-04-30 20:38 51.73561 20.98731 6347 ft 251 kts 20°
2026-04-30 20:38 51.75184 20.99766 6102 ft 251 kts 20°
2026-04-30 20:38 51.76806 21.00802 5864 ft 251 kts 20°
2026-04-30 20:39 51.80050 21.02875 5389 ft 250 kts 20°
2026-04-30 20:39 51.81670 21.03912 5139 ft 250 kts 20°
2026-04-30 20:39 51.83288 21.04948 4891 ft 250 kts 20°
2026-04-30 20:40 51.86524 21.07022 4393 ft 250 kts 20°
2026-04-30 20:40 51.87590 21.07707 4231 ft 250 kts 20°
2026-04-30 20:40 51.89197 21.08739 4054 ft 245 kts 20°
2026-04-30 20:41 51.92251 21.10703 3839 ft 227 kts 20°
2026-04-30 20:41 51.93687 21.11627 3738 ft 218 kts 20°
2026-04-30 20:41 51.95083 21.12527 3542 ft 215 kts 20°
2026-04-30 20:41 51.96510 21.13230 3427 ft 215 kts
2026-04-30 20:42 51.97967 21.12860 3331 ft 211 kts 340°
2026-04-30 20:42 51.99265 21.11846 3211 ft 204 kts 331°
2026-04-30 20:42 52.01624 21.09733 3049 ft 184 kts 332°
2026-04-30 20:43 52.02715 21.08784 3037 ft 170 kts 333°
2026-04-30 20:43 52.03725 21.07906 2977 ft 163 kts 333°
2026-04-30 20:43 52.04722 21.07040 2792 ft 162 kts 333°
2026-04-30 20:44 52.06717 21.05304 2381 ft 163 kts 333°
2026-04-30 20:44 52.07696 21.04452 2186 ft 156 kts 332°
2026-04-30 20:44 52.09562 21.02828 1774 ft 145 kts 332°
2026-04-30 20:45 52.11282 21.01329 1356 ft 138 kts 332°
2026-04-30 20:45 52.12134 21.00589 1135 ft 140 kts 332°
2026-04-30 20:45 52.12999 20.99837 948 ft 142 kts 331°
2026-04-30 20:46 52.15623 20.97543 381 ft 140 kts 330°
2026-04-30 20:46 52.16406 20.96859 341 ft 107 kts 331°
2026-04-30 20:47 52.17175 20.96248 338 ft 27 kts 352°
2026-04-30 20:47 52.17291 20.96244 338 ft 12 kts
2026-04-30 20:48 52.17383 20.96269 349 ft 1 kts 36°
2026-04-30 20:48 52.17395 20.96291 336 ft 6 kts 52°
2026-04-30 20:48 52.17414 20.96397 339 ft 14 kts 73°
2026-04-30 20:48 52.17451 20.96545 340 ft 13 kts 92°
2026-04-30 20:49 52.17391 20.96635 340 ft 12 kts 151°
2026-04-30 20:49 52.17315 20.96701 337 ft 12 kts 152°
2026-04-30 20:49 52.17249 20.96759 339 ft 10 kts 151°
2026-04-30 20:50 52.17122 20.96871 340 ft 12 kts 153°
2026-04-30 20:50 52.17049 20.96935 340 ft 12 kts 152°
2026-04-30 20:50 52.16970 20.97004 338 ft 13 kts 152°
2026-04-30 20:50 52.16907 20.97061 339 ft 9 kts 141°
2026-04-30 20:51 52.16902 20.97148 340 ft 8 kts 75°
2026-04-30 20:51 52.16912 20.97212 340 ft 1 kts 76°
2026-04-30 20:51 52.16914 20.97222 340 ft 0 kts 76°
2026-04-30 20:52 52.16914 20.97224 340 ft 0 kts 76°